STARLINK-5314

decayed
NORAD ID: 55678 Int'l Des: 2023-021 Owner: SPXS Country: US Constellation: starlink
LEOCIRCULAR

关于 STARLINK-5314

正在加载描述...

高度历史

Altitude vs Time

uPlot chart will show altitude changes over time

两行轨道根数

1 55678U 23021BC 25086.67269705 .62834560 40815-5 71891-3 0 9998
2 55678 69.9304 303.8372 0037968 126.0330 319.3124 16.46164086117383
Epoch: Mar 27, 2025 • Age: 4123 hours

当前状态

Position data unavailable
发射日期 Feb 17, 2023
运行时间 2.5 years
衰减日期 Mar 28, 2025
类型 internet

技术详情

分类 Payload
质量 305.00 kg
干质量 290.00 kg
总质量 305.00 kg
长度 0.20 m
直径 2.80 m
跨度 9.00 m
形状 Box + pan
制造商 SPXS
平台类型 Starlink
阶段状态 Reentered
所有者/国家 SPXS/US

大型星座

Loading constellations...